{"data":{"norad_id":60258,"epoch":"2026-09-21T07:17:56.596128Z","epoch_age_seconds":112047,"freshness":"FRESH","line1":"1 60258U 24131D   26264.30412727 -.00000062  00000+0  93076-5 0  9996","line2":"2 60258  53.1577 222.0126 0001262  85.6175 274.4972 15.34396615121696","mean_motion":15.34396615,"eccentricity":0.0001262,"inclination_deg":53.1577,"raan_deg":222.0126,"arg_perigee_deg":85.6175,"mean_anomaly_deg":274.4972,"bstar":9.3076e-6,"rev_number":12169,"period_min":93.847965116894,"perigee_km":461.84998585095,"apogee_km":463.57661646696,"semimajor_km":6840.850301159,"source":"CELESTRAK","updated_at":"2026-09-22T09:00:49.186650Z"}}